Lapse_Rate
5.8 5.9 6.1 6.1 6.1 6.2 6.4 6.4 6.4 6.6 6.7 6.6 6.7 7.0 7.1 7.3 7.2 7.2 7.0 7.0 6.9 6.9 6.5 6.9 7.1 7.3 7.3 7.5 7.4 7.2 7.2 7.0 7.2 7.0 7.8 7.4 7.7 7.4 7.5 7.5 6.7 7.1 6.9 7.0
5.4 5.5 5.8 6.0 6.1 6.1 6.2 6.2 6.3 6.5 6.4 6.4 6.8 7.0 7.1 7.1 7.3 7.2 7.1 7.1 7.1 7.1 7.0 6.7 6.9 7.3 7.6 7.6 7.4 7.5 7.3 6.8 6.7 6.7 6.8 7.0 7.1 7.4 7.3 7.1 7.3 7.0 7.0 7.2
4.9 5.1 5.2 5.5 5.9 5.9 6.1 6.0 5.8 6.3 6.4 6.6 6.7 6.7 6.9 7.1 7.3 7.4 7.2 7.2 7.2 7.0 7.1 7.0 7.0 7.0 7.2 7.3 7.4 7.1 7.1 6.9 7.3 8.0 7.2 7.2 6.8 7.1 7.0 6.7 6.4 6.8 6.6 7.7
4.4 4.4 4.9 5.0 5.0 5.5 6.0 5.9 5.4 5.9 6.0 6.4 6.5 6.5 6.4 6.8 7.1 7.3 7.3 7.3 7.4 7.2 6.9 7.0 7.1 7.1 7.2 7.1 7.0 6.8 6.7 6.9 7.2 7.5 7.3 7.1 7.1 7.2 7.1 6.8 6.9 6.5 7.5 7.0
4.2 4.1 4.3 4.4 4.9 5.0 4.9 5.0 5.7 5.9 5.8 5.9 6.1 6.2 6.5 6.7 6.8 6.9 7.2 7.2 7.4 7.2 7.1 7.3 7.2 7.3 7.2 7.2 7.0 6.7 6.6 6.4 7.0 6.9 7.0 6.9 6.9 6.9 6.7 6.8 6.7 6.6 7.2 7.1
4.5 4.3 4.2 4.2 4.3 4.5 4.4 4.7 4.6 4.5 5.2 5.6 5.9 6.0 6.1 6.4 6.4 6.6 6.8 7.1 6.9 7.0 7.3 7.1 6.9 6.8 7.0 6.9 6.9 7.0 6.7 6.4 6.4 6.6 6.4 6.3 6.4 7.3 7.2 7.4 7.5 7.5 6.7 7.6
4.6 4.5 4.5 4.4 4.3 4.0 4.1 4.3 4.3 4.4 4.5 4.7 5.2 5.7 6.0 6.2 6.3 6.2 6.4 6.7 6.7 6.9 7.1 6.9 6.6 6.6 6.7 6.6 6.7 6.7 6.5 6.6 6.2 6.5 5.6 6.1 6.8 7.0 7.2 7.2 7.4 6.7 7.4 7.2
5.7 5.1 4.7 4.5 4.4 4.4 4.3 4.0 4.4 4.3 4.1 4.3 4.7 4.8 5.8 6.2 6.1 6.1 6.1 6.4 6.5 6.6 6.6 6.6 6.4 6.2 6.1 6.3 6.5 6.4 6.4 6.2 6.2 6.1 6.0 6.4 6.3 6.9 7.3 7.2 7.3 7.0 7.2 6.8
6.0 6.2 6.0 5.6 5.2 4.8 4.4 4.2 4.2 4.4 4.3 4.3 4.3 4.8 5.2 5.5 6.2 6.0 6.2 6.3 6.4 6.4 6.4 6.4 6.0 6.3 6.4 6.5 6.2 6.4 6.5 6.3 5.9 6.0 5.8 6.3 7.1 7.0 6.8 6.6 6.1 6.8 6.6 6.4
5.8 5.4 5.3 5.3 5.3 5.5 5.6 5.3 4.9 4.7 4.6 4.2 4.5 4.4 4.7 5.2 5.6 5.5 6.3 6.5 6.4 6.3 6.2 6.0 5.9 6.3 6.5 6.4 6.4 6.5 6.0 5.4 5.5 5.6 5.8 5.9 6.2 6.5 6.6 6.3 6.6 6.7 6.4 6.3
5.4 5.4 5.4 5.3 4.8 4.8 5.2 5.2 5.4 5.4 5.5 5.1 4.8 5.0 4.6 4.7 5.1 5.4 5.4 6.1 6.4 6.7 6.3 6.0 6.1 6.1 6.4 6.2 6.5 6.5 6.8 6.6 5.6 5.3 5.6 5.7 6.4 6.6 6.4 6.7 6.7 6.4 6.2 6.0
5.4 5.6 5.4 5.4 5.0 4.8 4.7 4.5 4.8 4.8 5.1 5.4 5.4 5.4 5.3 5.1 5.2 5.2 5.3 5.6 6.0 6.1 6.3 6.3 6.7 6.7 6.6 6.4 6.4 6.6 6.4 6.8 7.2 7.0 7.1 7.1 6.9 6.8 6.6 6.4 6.3 6.1 5.8 5.6
5.5 5.5 5.6 5.5 5.3 5.1 4.8 4.7 4.5 4.4 4.5 5.0 5.3 5.6 5.7 5.7 5.8 5.7 5.5 5.2 5.7 6.0 5.7 5.8 5.9 6.1 6.1 6.3 6.2 6.9 6.6 6.8 6.8 7.0 6.6 6.8 6.7 6.4 6.1 6.1 6.0 5.7 5.0 4.8
5.9 5.8 5.7 5.7 5.6 5.5 5.5 5.4 5.1 4.8 4.5 4.3 5.0 5.0 5.2 5.5 5.6 5.9 5.9 5.8 5.9 5.6 5.8 5.9 6.1 6.0 6.2 6.2 6.2 6.2 6.3 6.2 6.4 6.4 6.4 6.4 6.3 5.9 5.7 5.7 5.6 5.2 5.1 5.1
6.8 6.7 6.7 6.7 6.6 6.7 6.6 6.5 6.4 6.2 5.6 4.8 4.8 4.9 5.2 5.1 5.5 5.7 5.6 5.7 5.9 6.2 5.8 5.7 6.0 6.1 6.1 6.0 6.3 6.3 6.0 6.0 6.0 6.3 6.1 6.0 6.1 5.9 5.9 5.8 5.3 5.4 5.3 5.3
6.8 6.8 6.9 7.0 7.0 7.1 6.9 7.1 7.5 7.4 7.3 6.4 5.5 5.4 5.7 5.5 5.4 5.5 5.5 5.8 5.6 5.5 5.6 6.0 6.1 6.0 6.1 6.5 6.4 5.0 5.3 5.6 5.9 6.1 6.3 6.3 6.6 6.3 6.0 5.7 5.4 5.4 5.3 5.1
6.8 6.7 6.7 7.0 7.3 7.3 7.2 7.2 7.5 7.6 7.6 7.5 7.1 6.8 6.8 6.4 6.0 6.1 6.0 6.0 5.9 5.8 5.8 5.9 6.1 6.1 6.2 5.6 4.6 4.5 4.9 5.4 5.8 5.8 5.8 5.9 5.8 5.6 5.4 5.3 5.2 5.1 4.8 4.4
7.0 7.0 7.0 7.2 7.4 7.6 7.8 7.8 8.0 7.7 7.7 7.7 7.6 7.5 7.3 7.2 6.9 6.6 6.3 6.3 6.2 6.2 6.3 6.2 6.0 6.1 5.8 4.4 4.2 4.5 4.8 4.9 5.2 5.4 5.3 5.4 5.2 5.1 4.9 4.7 4.6 4.6 4.9 4.9
7.3 7.3 7.3 7.4 7.6 7.7 7.7 7.8 7.8 7.7 7.6 7.7 7.9 7.6 7.5 7.4 7.2 7.0 6.9 6.7 6.5 6.1 5.8 5.8 5.7 5.0 4.1 4.2 4.6 4.8 4.8 5.1 5.0 4.9 5.0 5.1 5.0 4.8 4.7 4.7 4.8 5.0 5.2 5.3
7.8 7.6 7.5 7.7 7.7 7.8 7.8 7.8 7.7 7.6 7.5 7.5 7.7 7.5 7.5 7.4 7.4 7.2 7.2 7.0 6.9 6.4 5.5 5.1 4.8 4.6 4.5 4.3 4.4 4.7 4.8 4.9 5.0 5.0 4.9 4.9 5.0 4.9 5.0 5.1 5.3 5.5 5.5 5.4
8.1 8.0 7.8 7.8 7.8 7.7 7.6 7.6 7.6 7.5 7.6 7.5 7.5 7.4 7.5 7.6 7.5 7.2 7.1 7.0 7.0 6.6 5.9 5.5 5.2 4.6 4.7 4.7 4.7 4.9 5.0 5.1 5.2 5.3 5.3 5.1 5.3 5.5 5.6 5.6 5.6 5.6 5.6 5.6
8.1 8.0 8.0 8.0 7.8 7.7 7.6 7.5 7.4 7.4 7.5 7.5 7.7 7.5 7.5 7.5 7.7 7.5 7.4 7.2 7.1 6.3 6.0 5.8 5.2 5.0 5.2 5.3 5.4 5.6 5.6 5.5 5.4 5.6 5.9 6.0 6.0 5.9 5.9 5.8 5.7 5.6 5.5 5.5
8.2 8.1 8.2 8.0 7.9 7.8 7.6 7.4 7.4 7.4 7.4 7.5 7.6 7.8 7.7 7.8 7.6 7.6 7.5 7.4 6.8 6.6 6.2 5.6 5.3 5.3 5.4 5.4 5.4 5.5 5.6 5.8 5.8 5.9 5.9 5.9 6.0 6.1 6.0 6.0 5.9 5.9 5.9 5.9
8.3 8.3 8.2 8.1 7.8 7.6 7.5 7.4 7.4 7.4 7.6 7.6 7.8 8.1 8.0 7.9 7.9 7.7 7.5 7.2 7.0 6.7 6.4 5.9 5.9 5.9 5.9 6.0 6.1 6.1 6.1 6.1 6.2 6.3 6.3 6.3 6.3 6.3 6.2 6.2 6.2 6.2 6.2 6.1
8.1 8.1 8.0 7.8 7.7 7.6 7.5 7.5 7.5 7.6 7.7 7.9 8.1 8.0 7.9 7.9 7.7 7.5 7.3 7.0 6.8 6.6 6.3 6.3 6.3 6.3 6.3 6.4 6.5 6.6 6.6 6.6 6.6 6.6 6.5 6.5 6.4 6.4 6.4 6.3 6.3 6.3 6.3 6.4
7.9 7.9 7.9 7.8 7.7 7.7 7.6 7.6 7.5 7.6 7.7 7.9 7.9 7.8 7.8 7.6 7.3 7.1 6.7 6.8 6.6 6.4 6.3 6.4 6.5 6.5 6.5 6.5 6.6 6.5 6.5 6.5 6.5 6.5 6.5 6.5 6.5 6.5 6.6 6.6 6.5 6.6 6.5 6.5
7.8 7.6 7.7 7.7 7.6 7.6 7.6 7.6 7.7 7.7 7.8 7.8 7.8 7.6 7.4 7.2 7.0 6.7 6.7 6.6 6.6 6.6 6.6 6.6 6.7 6.7 6.7 6.6 6.6 6.6 6.6 6.5 6.6 6.6 6.5 6.5 6.6 6.6 6.6 6.5 6.5 6.5 6.4 6.4
Wind_Speed
21 24 26 28 29 32 3 3 3 3 3 4 3 8 4 1 5 4 4 3 5 6 4 6 8 6 5 5 8 5 4 3 3 2 3 2 3 5 9 3 5 1 2 5
20 22 25 26 28 25 5 3 3 2 3 5 7 5 4 4 6 6 7 6 7 2 4 5 9 5 3 6 8 8 6 5 3 3 2 3 6 8 8 2 1 6 4 3
20 23 25 26 28 27 3 3 3 3 4 4 6 8 7 5 6 4 6 3 4 4 6 7 3 5 2 3 5 1 4 3 8 5 3 6 6 11 13 9 4 5 6 2
21 23 25 27 30 28 3 3 2 2 3 6 10 4 4 4 5 6 9 5 13 9 7 6 6 6 5 4 4 4 4 6 7 8 5 4 4 10 15 15 10 7 5 8
19 21 23 26 31 32 2 4 3 2 5 6 7 7 6 10 7 8 7 9 10 14 10 9 7 11 7 5 9 7 4 2 1 4 4 6 8 12 14 16 17 20 20 18
18 19 20 23 27 21 3 3 2 4 6 6 6 11 9 5 2 9 7 12 10 12 18 5 1 5 1 4 8 12 8 5 5 3 2 3 10 18 19 16 14 19 16 16
16 17 18 19 20 18 4 3 3 4 10 12 11 9 5 8 7 8 3 6 7 1 5 10 5 5 3 5 6 7 6 8 3 3 2 6 5 2 4 14 18 17 12 2
15 15 16 16 16 17 3 2 3 3 8 12 15 16 16 13 11 8 10 6 1 5 4 3 5 4 3 8 6 7 5 7 4 4 8 12 12 6 6 9 8 14 13 10
14 15 14 14 14 14 5 2 2 3 4 7 9 10 14 11 11 9 5 2 0 2 4 3 6 7 7 6 4 1 6 2 6 6 6 7 3 5 4 4 7 6 8 11
15 14 15 15 13 12 7 2 3 1 3 2 7 9 5 5 6 6 2 3 4 1 5 6 8 11 4 6 8 6 5 5 13 12 10 9 6 8 5 7 2 6 8 12
18 16 14 13 11 11 8 3 2 1 3 10 6 5 5 5 3 3 4 2 3 4 7 6 8 8 9 9 8 8 9 10 6 7 8 11 10 6 6 5 8 11 11 12
18 19 17 13 9 9 6 3 4 5 3 6 15 15 15 10 12 7 4 5 3 2 5 6 5 7 4 10 11 2 6 8 4 9 3 5 3 6 8 6 13 12 13 11
17 18 17 14 12 11 4 2 4 3 5 9 7 7 7 11 12 3 3 3 4 4 2 2 2 6 2 8 10 8 4 2 3 2 7 6 7 7 6 9 10 10 11 12
18 16 15 16 15 13 11 4 5 4 4 4 6 3 5 7 5 9 9 6 4 4 3 4 4 4 3 4 4 6 4 7 3 3 5 11 8 7 9 11 13 14 12 12
16 15 15 15 15 16 13 10 7 6 4 5 9 15 13 10 7 9 10 10 6 2 2 3 3 2 3 2 2 4 6 4 3 1 5 6 10 8 10 13 13 13 12 10
15 16 15 16 14 13 5 3 3 4 1 3 4 4 6 4 6 8 9 8 4 3 2 2 1 2 2 3 3 7 9 11 7 4 15 15 14 13 14 13 11 9 10 8
15 17 18 18 14 8 4 3 4 4 2 3 4 4 1 3 4 2 3 7 3 3 2 3 2 3 4 3 3 6 12 14 12 10 10 13 12 9 10 9 7 8 7 6
18 19 19 16 11 6 3 0 7 7 3 3 3 4 3 5 3 3 1 3 3 2 0 3 3 3 3 4 6 8 9 13 16 15 15 13 10 8 7 7 6 6 5 5
18 19 13 3 2 1 1 14 12 4 2 3 2 3 4 6 2 2 2 2 1 4 4 4 3 4 5 8 8 10 12 10 8 9 9 9 9 8 7 6 6 5 5 6
13 3 2 1 2 13 10 2 1 0 1 2 2 4 4 6 4 1 4 2 2 3 4 3 4 7 10 10 9 10 10 10 10 10 9 9 8 7 6 6 5 5 6 7
3 4 2 4 10 2 2 1 2 1 2 3 3 4 5 3 4 3 3 3 3 3 4 3 3 3 6 8 9 8 8 8 8 7 5 6 6 7 8 8 8 8 8 8
3 3 2 2 3 1 1 2 2 3 4 4 5 5 4 3 3 3 4 3 3 5 2 3 3 3 7 7 7 6 7 8 8 8 8 9 9 8 7 7 8 8 8 8
1 1 2 4 3 4 4 4 3 3 6 5 5 4 3 3 4 1 3 4 4 1 3 3 3 5 6 6 6 7 8 9 10 10 9 9 9 9 8 9 8 9 9 9
2 3 5 4 3 4 4 5 4 4 6 7 6 3 3 2 3 2 4 3 1 3 3 4 4 7 7 7 7 8 9 10 10 11 10 11 10 10 10 9 9 9 10 10
3 3 4 5 3 4 3 5 4 5 6 5 3 1 2 4 3 4 2 4 5 5 4 3 5 7 8 8 10 10 10 10 8 7 6 7 8 8 9 9 9 9 9 9
2 5 1 3 1 5 5 6 7 6 6 2 1 2 3 6 4 5 5 3 5 3 3 4 6 6 7 8 9 8 9 10 9 8 9 10 10 10 10 10 8 7 7 8
4 3 6 5 3 5 5 6 7 8 4 3 2 5 4 3 4 3 5 4 4 5 5 5 6 7 7 6 7 8 9 9 9 9 10 10 9 9 9 9 9 9 9 7
Wind_Direction
8 3 2 359 359 349 280 296 252 126 193 192 213 242 248 12 189 178 192 256 263 245 223 215 216 226 206 174 156 160 173 282 189 167 90 331 294 241 202 219 182 205 305 267
9 6 4 1 357 0 315 273 283 137 233 228 220 214 247 252 189 211 189 210 222 195 227 233 224 218 105 170 171 175 170 217 188 185 186 185 226 206 230 147 127 201 190 230
12 7 3 0 355 351 291 282 265 162 214 282 275 261 239 223 213 220 201 227 185 188 215 219 242 228 171 191 203 79 180 232 252 266 28 122 196 195 201 202 185 193 228 256
11 7 3 1 353 348 283 218 279 10 226 236 239 267 303 238 228 233 210 210 218 198 213 195 220 196 157 181 173 198 233 247 218 245 220 218 222 186 195 208 210 199 186 202
5 6 6 5 358 341 262 297 315 205 287 282 254 229 247 235 228 180 227 238 203 210 220 209 201 182 191 191 174 186 195 252 206 254 198 239 250 231 208 219 224 241 254 266
359 1 4 6 10 359 343 5 291 287 273 257 260 247 250 264 263 219 261 229 230 216 228 225 146 180 243 144 175 184 176 200 204 230 147 246 263 235 221 221 221 225 240 251
356 357 360 5 8 15 318 357 294 276 270 261 259 271 277 266 258 268 305 227 227 51 100 97 116 134 134 180 180 197 188 204 213 258 197 242 273 22 291 238 238 225 246 208
347 350 352 357 1 5 348 358 323 283 274 277 283 273 269 270 267 251 248 221 326 169 171 194 183 188 213 205 187 203 232 202 224 231 231 279 298 190 184 189 240 225 230 218
341 339 339 342 348 352 347 39 13 316 293 234 310 296 291 285 272 244 217 141 34 207 220 212 214 215 216 182 177 229 195 268 232 182 238 249 80 93 114 127 257 173 186 165
332 331 328 326 329 333 332 282 21 296 288 284 318 266 298 334 301 284 349 176 172 226 206 227 230 236 226 215 194 172 170 200 218 225 239 262 113 140 150 204 277 147 157 154
331 320 322 324 329 343 340 314 162 203 273 279 262 324 336 340 240 268 30 255 207 187 221 226 218 238 223 237 235 166 172 170 186 201 233 247 141 128 213 100 109 125 129 147
323 331 319 307 323 327 340 280 224 202 235 280 299 273 250 235 282 297 254 286 323 307 236 227 240 229 226 229 239 90 220 214 199 200 216 78 96 60 105 131 132 125 118 110
315 314 329 330 313 302 305 259 295 254 272 284 260 279 321 202 222 280 266 247 309 232 17 322 293 258 285 228 229 257 212 151 239 164 141 106 84 60 47 83 99 100 114 121
316 311 313 320 320 316 312 267 270 268 276 276 299 299 265 164 242 262 262 287 305 317 318 235 230 232 198 250 312 295 359 321 238 83 92 94 72 76 91 91 99 101 101 107
310 308 308 305 312 314 312 277 278 256 251 300 297 303 284 259 236 249 258 243 255 233 208 220 229 243 236 267 69 39 348 339 270 69 113 94 107 100 93 94 94 100 109 103
315 316 309 302 302 313 307 275 171 157 112 294 285 345 276 262 238 263 275 258 242 204 237 221 194 63 242 84 76 17 16 38 41 63 81 88 93 90 89 92 94 88 80 69
309 312 314 309 311 297 249 306 352 276 183 262 287 276 148 315 302 283 268 231 213 192 205 215 71 48 45 40 74 27 38 42 46 50 85 74 64 77 79 84 82 88 90 79
309 316 313 307 299 271 255 293 349 330 240 225 270 278 280 12 312 295 339 294 170 189 23 51 43 39 61 73 59 52 44 56 50 49 57 72 82 71 67 65 61 70 60 31
316 317 309 267 238 285 351 315 301 252 294 300 272 313 331 342 310 300 292 303 40 52 37 38 56 48 54 69 65 54 40 37 52 66 58 63 61 58 45 37 32 24 9 354
322 316 296 246 41 318 300 186 268 170 3 261 294 336 316 326 334 323 322 337 21 83 58 83 73 75 78 60 51 46 40 38 30 38 30 22 28 21 12 6 357 354 343 336
340 350 334 336 321 276 338 20 325 16 189 8 349 346 326 25 328 331 25 324 349 74 50 49 75 69 50 50 53 43 38 38 38 37 29 20 6 358 353 349 347 343 335 330
353 321 287 301 356 352 13 21 352 351 30 4 342 340 326 326 335 311 2 354 50 68 12 74 80 55 37 48 51 41 32 28 26 20 8 3 358 352 337 329 333 332 325 319
216 337 26 340 350 29 16 15 19 21 353 11 336 321 345 318 9 33 355 41 56 253 42 60 59 45 34 28 23 20 21 17 11 0 357 349 343 340 340 330 325 323 317 317
44 9 23 14 26 42 19 11 10 359 323 334 329 310 358 349 15 346 52 40 323 69 62 65 53 25 12 16 14 8 2 0 354 345 342 339 337 330 325 321 320 317 311 314
51 4 35 44 31 46 13 353 327 354 324 330 304 264 324 13 49 22 17 47 53 39 47 59 19 7 6 5 2 355 348 341 333 327 321 315 311 311 311 313 314 309 304 305
45 39 10 1 333 38 10 358 352 358 337 287 299 356 52 43 10 40 25 33 40 54 33 24 357 3 357 354 345 340 334 326 321 322 324 322 321 316 315 313 302 301 305 298
31 34 21 6 28 17 3 347 347 328 332 18 4 43 20 286 43 47 15 37 23 7 357 357 358 351 357 344 331 335 332 325 330 329 325 321 318 316 304 308 324 316 311 292